{"data":{"norad_id":63719,"epoch":"2026-09-20T13:54:22.873824Z","epoch_age_seconds":145974,"freshness":"FRESH","line1":"1 63719U 25087Y   26263.57943141  .00010922  00000+0  33387-3 0  9991","line2":"2 63719  53.1589  29.6649 0000901  81.4157 278.6948 15.34402520 79108","mean_motion":15.3440252,"eccentricity":9.01e-5,"inclination_deg":53.1589,"raan_deg":29.6649,"arg_perigee_deg":81.4157,"mean_anomaly_deg":278.6948,"bstar":0.00033387,"rev_number":7910,"period_min":93.847603952058,"perigee_km":462.07939121549,"apogee_km":463.31210927709,"semimajor_km":6840.8327502463,"source":"CELESTRAK","updated_at":"2026-09-21T09:00:35.091284Z"}}